{"data":{"norad_id":36830,"intl_designator":"2010-037A","name":"NILESAT 201","alt_names":[],"object_type":"PAYLOAD","status":"ACTIVE","operator":null,"country":"EGYP","launch_date":"2010-08-04","launch_site_code":"FRGUI","launch_vehicle":null,"mission":null,"orbit_class":"UNKNOWN","rcs_meters":59.7633,"size_class":null,"mass_kg":null,"dimensions":null,"purposes":["comms"],"wikipedia_slug":null,"has_3d_model":false,"image_url":null,"decayed_at":null,"tle_current":{"epoch":"2026-05-25T03:42:39.949056Z","epoch_age_seconds":64901,"freshness":"FRESH","line1":"1 36830U 10037A   26145.15462904 -.00000060  00000+0  00000+0 0  9995","line2":"2 36830   0.0025 150.9949 0003761 298.3549 202.0712  1.00270824 58149","mean_motion":1.00270824,"eccentricity":0.0003761,"inclination_deg":0.0025,"raan_deg":150.9949,"arg_perigee_deg":298.3549,"mean_anomaly_deg":202.0712,"bstar":0,"rev_number":5814,"period_min":1436.1106676455,"perigee_km":35771.006109514,"apogee_km":35802.722623542,"semimajor_km":42165.001366528,"source":"CELESTRAK","updated_at":"2026-05-25T13:38:13.894616Z"}}}